Location: Castro Valley
(37.6940°N, 122.0850°W)
Time: 21:16:38
(UTC-07:00)

PANSAT - Visible Passes

Search period start: 22 May 2015 00:00
Search period end: 01 June 2015 00:00
Orbit: 484 x 490 km, 28.5° (Epoch: 21 May)

Date Brightness Start Highest point End Pass type
(mag) Time Alt. Az. Time Alt. Az. Time Alt. Az.
22 May 9.2 21:45:42 10° SW 21:48:27 19° S 21:48:34 19° S visible
23 May 9.3 21:18:21 10° SW 21:21:04 18° S 21:22:40 15° SSE visible
24 May 9.4 20:50:58 10° SW 20:53:40 18° S 20:56:22 10° SE visible
